Location: Miles
(41.4492°N, 81.6087°W)
Time: 19:34:24
(UTC+00:00)

Tiros 1 despin weight - Pass Details

Date: 18 September 2024
Orbit: 573 x 615 km, 48.2° (Epoch: 04 October)

Event Time Altitude Azimuth Distance (km) Brightness Sun altitude
Rises 07:16:25 0° 233° (SW) 2,845 - -39.5°
Reaches altitude 10° 07:18:42 10° 231° (SW) 1,951 - -39.3°
Maximum altitude 07:23:10 70° 148° (SSE) 653 - -38.7°
Exits shadow 07:27:25 12° 65° (ENE) 1,875 ? -38.2°
Drops below altitude 10° 07:27:42 10° 65° (ENE) 1,979 ? -38.2°
Sets 07:30:01 0° 63° (ENE) 2,890 ? -37.9°
